EW4462 Weather Reports


Display with metric or nautical units.
time (UTC)temp
F
wind
direction
speed
MPH
gust
MPH
rain 1hr
in
rain 24hr
in
rain mn
in
humidity
%
barometer
mb
20260831044903 72 100 0.0 0.0 0.00 0.00 0.00 85 1012.9
20260831041628 73 100 0.0 0.0 0.00 0.00 0.00 84 1012.6
20260831040626 73 100 0.0 0.0 0.00 0.00 0.00 84 1012.6
20260831035642 73 94 0.0 0.0 0.00 0.00 0.00 84 1012.6
20260831034649 73 94 0.0 0.0 0.00 0.00 0.00 84 1012.4
20260831033617 73 94 0.0 0.0 0.00 0.00 0.00 84 1012.3
20260831032607 74 94 0.0 0.0 0.00 0.00 0.00 83 1012.3
20260831031602 74 94 0.0 0.0 0.00 0.00 0.00 83 1012.2
20260831030605 74 94 0.0 0.0 0.00 0.00 0.00 83 1012.0
20260831023302 74 94 0.0 0.0 0.00 0.00 0.00 82 1012.0
20260831022247 75 96 0.0 0.0 0.00 0.00 0.00 82 1012.0
20260831021308 75 96 0.0 0.0 0.00 0.00 0.00 82 1011.8
20260831020318 75 96 0.0 0.0 0.00 0.00 0.00 82 1011.8
20260831015243 76 90 0.0 0.0 0.00 0.00 0.00 81 1011.6
20260831014220 76 87 0.0 2.0 0.00 0.00 0.00 80 1011.7
20260831013239 77 105 0.0 0.0 0.00 0.00 0.00 79 1011.6
20260831012209 77 92 0.0 0.0 0.00 0.00 0.00 78 1011.5
20260831011201 78 97 0.0 0.0 0.00 0.00 0.00 75 1011.7
20260831005013 80 79 0.0 0.0 0.00 0.00 0.00 72 1011.7
20260831003945 80 74 0.0 0.0 0.00 0.00 0.00 70 1011.6
20260831002918 81 110 0.0 0.0 0.00 0.00 0.00 68 1011.7
20260831001908 82 117 0.0 0.0 0.00 0.00 0.00 68 1011.8
20260831000857 83 88 0.0 0.0 0.00 0.00 0.00 67 1011.7
20260830235829 83 86 0.0 0.0 0.00 0.00 0.00 68 1011.6
20260830234817 84 98 0.0 0.0 0.00 0.00 0.00 68 1011.7
20260830233838 84 97 0.0 0.0 0.00 0.00 0.00 67 1011.6
20260830232838 84 86 0.0 0.0 0.00 0.00 0.00 67 1011.6
20260830231856 83 88 0.0 0.0 0.00 0.00 0.00 68 1011.8
20260830230828 83 123 0.0 0.0 0.00 0.00 0.00 67 1011.8
20260830224723 83 96 0.0 0.0 0.00 0.00 0.00 68 1011.9
20260830223705 84 119 0.0 0.0 0.00 0.00 0.00 66 1012.0
20260830222636 83 103 0.0 0.0 0.00 0.00 0.00 66 1012.0
20260830221632 83 111 0.0 6.0 0.00 0.00 0.00 68 1012.1
20260830220620 84 91 0.0 0.0 0.00 0.00 0.00 67 1012.2
20260830215640 84 119 0.0 0.0 0.00 0.00 0.00 66 1012.3
20260830213511 85 123 0.0 0.0 0.00 0.00 0.00 64 1012.4
20260830212501 85 95 0.0 0.0 0.00 0.00 0.00 64 1012.7
20260830211428 84 80 0.0 0.0 0.00 0.00 0.00 65 1012.7
20260830210429 84 87 0.0 0.0 0.00 0.00 0.00 67 1012.7
20260830205444 84 119 0.0 0.0 0.00 0.00 0.00 67 1012.7
20260830204443 84 100 0.0 0.0 0.00 0.00 0.00 66 1013.0
20260830203508 84 127 0.0 0.0 0.00 0.00 0.00 67 1012.8
20260830202448 84 86 0.0 0.0 0.00 0.00 0.00 66 1012.8
20260830201432 84 117 0.0 1.0 0.00 0.00 0.00 66 1012.8
20260830200441 85 84 0.0 0.0 0.00 0.00 0.00 67 1012.8
20260830194310 84 118 0.0 7.0 0.00 0.00 0.00 67 1012.8
20260830193255 84 90 0.0 0.0 0.00 0.00 0.00 68 1013.0
20260830192308 83 128 0.0 0.0 0.00 0.00 0.00 70 1012.9
20260830191316 84 101 0.0 0.0 0.00 0.00 0.00 68 1013.0
20260830190247 84 116 0.0 8.0 0.00 0.00 0.00 67 1013.1
20260830185309 84 88 0.0 0.0 0.00 0.00 0.00 69 1013.2
20260830184250 84 101 0.0 0.0 0.00 0.00 0.00 69 1013.2
20260830183309 83 122 0.0 0.0 0.00 0.00 0.00 69 1013.1
20260830182243 83 88 0.0 0.0 0.00 0.00 0.00 69 1013.2
20260830181303 83 117 0.0 0.0 0.00 0.00 0.00 69 1013.3
20260830173931 83 84 0.0 0.0 0.00 0.00 0.00 70 1013.0
20260830172908 83 93 0.0 0.0 0.00 0.00 0.00 71 1013.0
20260830171930 82 87 0.0 0.0 0.00 0.00 0.00 71 1012.8
20260830170902 83 115 0.0 0.0 0.00 0.00 0.00 69 1012.7
20260830165849 83 88 0.0 0.0 0.00 0.00 0.00 69 1012.6
20260830163727 82 84 0.0 0.0 0.00 0.00 0.00 70 1012.6
20260830162700 81 77 0.0 0.0 0.00 0.00 0.00 72 1012.7
20260830161629 81 81 0.0 0.0 0.00 0.00 0.00 75 1012.6
20260830160604 80 84 0.0 0.0 0.00 0.00 0.00 76 1012.6
20260830155538 79 5 0.0 0.0 0.00 0.00 0.00 77 1012.6
20260830154520 79 80 0.0 0.0 0.00 0.00 0.00 79 1012.6
20260830153512 77 73 0.0 0.0 0.00 0.00 0.00 80 1012.6
20260830152522 77 71 0.0 0.0 0.00 0.00 0.00 82 1012.6
20260830150404 75 39 0.0 0.0 0.00 0.00 0.00 84 1012.8
20260830144252 74 38 0.0 0.0 0.00 0.00 0.00 86 1012.7
20260830140939 73 38 0.0 0.0 0.00 0.00 0.00 88 1012.7
20260830135918 73 38 0.0 0.0 0.00 0.00 0.00 88 1012.5
20260830134850 73 38 0.0 0.0 0.00 0.00 0.00 88 1012.4
20260830133815 73 32 0.0 0.0 0.00 0.00 0.00 88 1012.4
20260830132826 73 33 0.0 0.0 0.00 0.00 0.00 88 1012.3
20260830130639 73 33 0.0 0.0 0.00 0.00 0.00 88 1012.2
20260830125620 73 33 0.0 0.0 0.00 0.00 0.00 88 1012.2
20260830124611 73 33 0.0 0.0 0.00 0.00 0.00 88 1012.1
20260830122509 73 34 0.0 0.0 0.00 0.00 0.00 88 1012.1
20260830121449 73 28 0.0 0.0 0.00 0.00 0.00 89 1012.0
20260830120419 73 28 0.0 0.0 0.00 0.00 0.00 89 1012.0
20260830115440 73 28 0.0 0.0 0.00 0.00 0.00 89 1012.0
20260830114436 73 27 0.0 0.0 0.00 0.00 0.00 89 1012.1
20260830113442 73 84 0.0 0.0 0.00 0.00 0.00 89 1012.1
20260830112412 73 84 0.0 0.0 0.00 0.00 0.00 89 1012.1
20260830111345 73 84 0.0 0.0 0.00 0.00 0.00 89 1012.0
20260830110320 73 92 0.0 0.0 0.00 0.00 0.00 90 1012.1
20260830105310 73 92 0.0 0.0 0.00 0.00 0.00 90 1012.0
20260830104321 73 0 0.0 0.0 0.00 0.00 0.00 90 1012.0
20260830102130 73 355 0.0 0.0 0.00 0.00 0.00 91 1011.9
20260830101107 73 355 0.0 0.0 0.00 0.00 0.00 91 1011.9
20260830100052 73 355 0.0 0.0 0.00 0.00 0.00 91 1011.8
20260830095114 73 355 0.0 0.0 0.00 0.00 0.00 91 1011.8
20260830094111 73 355 0.0 0.0 0.00 0.00 0.00 91 1011.7
20260830093106 73 355 0.0 0.0 0.00 0.00 0.00 91 1011.8
20260830092117 73 355 0.0 0.0 0.00 0.00 0.00 91 1012.0
20260830091044 73 96 0.0 0.0 0.00 0.00 0.00 91 1011.9
20260830090012 73 96 0.0 0.0 0.00 0.00 0.00 91 1011.8
20260830083753 73 96 0.0 0.0 0.00 0.00 0.00 91 1011.9
20260830082723 73 96 0.0 0.0 0.00 0.00 0.00 91 1011.9
20260830080626 73 96 0.0 0.0 0.00 0.00 0.00 91 1012.0
20260830075634 73 96 0.0 0.0 0.00 0.00 0.00 90 1012.0
20260830074638 73 96 0.0 0.0 0.00 0.00 0.00 90 1012.0
20260830071403 73 96 0.0 0.0 0.00 0.00 0.00 89 1012.2
20260830070413 74 96 0.0 0.0 0.00 0.00 0.00 89 1012.1
20260830064222 74 96 0.0 0.0 0.00 0.00 0.00 89 1012.1
20260830063225 74 96 0.0 0.0 0.00 0.00 0.00 89 1012.0
20260830062250 74 96 0.0 0.0 0.00 0.00 0.00 89 1011.9
20260830060049 74 96 0.0 0.0 0.00 0.00 0.00 89 1012.0
20260830055059 74 96 0.0 0.0 0.00 0.00 0.00 89 1012.1
20260830054052 75 96 0.0 0.0 0.00 0.00 0.00 88 1012.0
20260830053109 75 96 0.0 0.0 0.00 0.00 0.00 88 1012.0
20260830052112 75 96 0.0 0.0 0.00 0.00 0.00 88 1012.0
20260830051040 75 96 0.0 0.0 0.00 0.00 0.00 88 1012.0
20260830050040 75 96 0.0 0.0 0.00 0.00 0.00 88 1012.2